Regional Weather Roundup
Issued by NWS

Home | Current Version | Previous Version | Graphics & Text | Print | Product List | Glossary On
Versions: 1 2 3 4 5 6 7 8 9 10 11 12 13 14 15 16 17 18 19 20 21 22 23 24 25 26 27 28 29 30 31 32 33 34 35 36 37 38 39 40 41 42 43 44 45 46 47 48 49 50
000
ASUS43 KFSD 250202
RWRSD

WEATHER ROUNDUP FOR SOUTH DAKOTA
NATIONAL WEATHER SERVICE SIOUX FALLS SD
900 PM CDT TUE MAY 24 2016

NOTE: "FAIR" INDICATES FEW OR NO CLOUDS BELOW 12,000 FEET WITH NO
SIGNIFICANT WEATHER AND/OR OBSTRUCTIONS TO VISIBILITY.


SDZ001>005-009-010-012>017-250300-
NORTHWEST AND NORTH CENTRAL SOUTH DAKOTA

CITY           SKY/WX    TMP DP  RH WIND       PRES   REMARKS
BUFFALO          N/A     67  41  38 S22G31    29.76R
FAITH            N/A     63  43  48 W17G26    29.85R
MOBRIDGE       CLOUDY    72  50  45 E10       29.78F
$$

SDZ012>016-024>037-041>051-057-063-072>074-250300-
SOUTHWEST AND SOUTH CENTRAL SOUTH DAKOTA

CITY           SKY/WX    TMP DP  RH WIND       PRES   REMARKS
RAPID CTY ARPT RAIN      56  48  74 SE38G52   29.74F
PIERRE         CLOUDY    69  51  52 NE6       29.76F
CUSTER         CLOUDY    48  44  86 VRB5      29.89S
ELLSWORTH AFB  CLOUDY    57  48  72 SW8G29    29.79
PHILIP         CLOUDY    62  52  69 NE17      29.80F
PINE RIDGE     LGT RAIN  54  49  83 N20G31    29.88R
WINNER         FAIR      72  56  57 SE14      29.76F
$$

SDZ004>011-016>023-039-040-250300-
NORTHEAST SOUTH DAKOTA

CITY           SKY/WX    TMP DP  RH WIND       PRES   REMARKS
ABERDEEN       CLEAR     74  44  34 NE5       29.81S
WATERTOWN      CLEAR     74  48  39 CALM      29.84S
BROOKINGS      CLEAR     76  45  33 CALM      29.84S
SISSETON         N/A     78  43  28 CALM      29.81S
$$

SDZ017-020-022-023-036>040-048>070-250300-
SOUTHEAST SOUTH DAKOTA

CITY           SKY/WX    TMP DP  RH WIND       PRES   REMARKS
SIOUX FALLS    PTCLDY    76  54  46 SE13      29.84R
HURON          CLEAR     72  52  49 MISG      29.80S
MITCHELL       CLOUDY    73  60  63 E7        29.79F
YANKTON        CLEAR     75  57  53 SE12      29.80F
$$

ABBREVIATIONS USED IN REMARKS
   TC - TEMPERATURE IN CELSIUS
  WCI - WIND CHILL INDEX
   HX - HEAT INDEX
  VSB - VISIBILITY




USA.gov is the U.S. government's official web portal to all federal, state and local government web resources and services.